DIAMANT DEB, 2685

Orbit data source: Space-Track

DIAMANT DEB, 2685 is space debris in LEO originally from a launch on Wed, 15 Feb 1967 UTC launched from the Hamma Guira Space Track Range (HGSTR). Debris objects in space refer to the collection of defunct objects orbiting the Earth. Examples of debris include non-operational satellites, rocket bodies, and fragments generated from explosions, collisions, or faulty payload assembly.

Loading next visibility...
Identifier
2685, 1967-014F
Orbit
LEO
Last TLE update
3 days ago
Origin
Manufacturer
Unknown
Mission
Spacecraft
Bus & Motor
Unknown
Mass
Unknown
Launch date (UTC)
1967-02-15 (58 years ago)
Launch vehicle
Unknown
Launch site
Hamma Guira Space Track Range (HGSTR)
Object type
Payload
Rocket body
Debris
Shape & HBR
Unknown
Radar Cross Section
Small (<0.1 m²)

Expand to show TLE details & history

TLE from 3 days ago
0 DIAMANT DEB
1 02685U 67014F   25179.19276978  .00001373  00000-0  25781-3 0  9992
2 02685  38.9296 151.7379 0362996 183.0084 176.8472 14.32379808916626
Epoch: 2025-06-28T04:37Z
TLE epoch observation values (Epoch: 2025-06-28T04:37:35.308Z)
Latitude
-0.00004°
Longitude
165.80593°
Altitude
1,042.702 km
Speed
7.198 km/s
True Right ascension
10h 06m 57s
True Declination
0° 00' 00"
Sunlit
Object was in daylight at epoch
Visualization orbit readout
Latitude
-23.37051°
Longitude
0.7313°
Altitude
535.65 km
Speed
7.729 km/s
Apparent Right ascension
20h 51m 33s
Apparent Declination
-74° 31' 45"
Sunlit
Object is in full shadow
Visualization observer readout
Local Sidereal Time
23:55:58
Azimuth
192.629° SSW
Elevation
-28.461°
Doppler factor
1
Orbital elements
Apogee altitude
1,046.371 km
Perigee altitude
526.238 km
Semi-major axis
7,164.441 km
Eccentricity
0.0363
Inclination
38.9296°
RAAN
151.7379°
Arg. of periapsis
183.0084°
True anomaly
Unknown
Mean anomaly
176.8472°
Eccentric anomaly
Unknown
Mean motion
3.57907 °/min
Orbital period
100.58 mins
BSTAR
0.00025781
Loading maneuver chart data...
Loading SW <> Apogee altitude chart data...
Loading historical data...
Loading historical data...
Loading historical data...
Loading historical data...
Loading historical data...
Loading historical data...
Loading historical data...

DIAMANT DEB Visibility forecast

Observer location: undefined°, undefined°

Span
Click to sort rows by Start time (UTC) header in descending order
Start Az.
Max El. time (UTC)
Max El. Az.
Max El.
End time (UTC)
End Az.
9 mins2025-07-01 23:08:12.888Z191.231° SSW2025-07-01 23:13:12.888Z141.372° SSE21.545°2025-07-01 23:17:12.888Z100.739° ESE
11 mins2025-07-02 00:53:12.888Z233.098° WSW2025-07-02 00:59:12.888Z144.535° SSE39.17°2025-07-02 01:04:12.888Z85.927° E
10 mins2025-07-02 02:40:12.888Z262.38° W2025-07-02 02:45:12.888Z155.074° SSE44.669°2025-07-02 02:50:12.888Z90.968° ESE
10 mins2025-07-02 04:26:12.888Z274.131° WNW2025-07-02 04:31:12.888Z204.135° SW42.261°2025-07-02 04:36:12.888Z115.211° SE
6 mins2025-07-02 06:14:12.888Z253.566° W2025-07-02 06:17:12.888Z207.964° SW23.445°2025-07-02 06:20:12.888Z164.346° S
|